2023/12/15 00:00:00,76.8, 8.6
2023/12/15 00:10:00,303.4, 8.8
2023/12/15 00:20:00,303.7, 8.7
2023/12/15 00:30:00,302.9, 9.0
2023/12/15 00:40:00,122.0, 8.9
2023/12/15 00:50:00,31.5, 9.1
2023/12/15 01:00:00,167.3, 9.4
2023/12/15 01:10:00,303.7, 9.4
2023/12/15 01:20:00,303.9, 9.6
2023/12/15 01:30:00,303.0, 9.8
2023/12/15 01:40:00,---,10.0
2023/12/15 01:50:00,31.3, 9.8
2023/12/15 02:00:00,---, 9.9
2023/12/15 02:10:00,31.5, 9.6
2023/12/15 02:20:00,167.2,10.0
2023/12/15 02:30:00,---, 9.6
2023/12/15 02:40:00,76.8, 9.6
2023/12/15 02:50:00,122.0, 9.7
2023/12/15 03:00:00,76.9, 9.6
2023/12/15 03:10:00,31.6, 9.6
2023/12/15 03:20:00,303.5, 9.6
2023/12/15 03:30:00,303.7, 9.7
2023/12/15 03:40:00,303.6, 9.8
2023/12/15 03:50:00,303.5, 9.6
2023/12/15 04:00:00,303.5, 9.9
2023/12/15 04:10:00,303.3, 9.9
2023/12/15 04:20:00,303.4,10.6
2023/12/15 04:30:00,303.5,10.6
2023/12/15 04:40:00,303.4,11.3
2023/12/15 04:50:00,167.5,10.9
2023/12/15 05:00:00, 0.0,11.3
2023/12/15 05:10:00, 0.0,11.2
2023/12/15 05:20:00, 0.0,11.4
2023/12/15 05:30:00,31.5,11.3
2023/12/15 05:40:00, 0.0,11.3
2023/12/15 05:50:00, 1.1,11.4
2023/12/15 06:00:00, 0.0,11.9
2023/12/15 06:10:00, 0.0,11.4
2023/12/15 06:20:00, 0.0,11.7
2023/12/15 06:30:00, 0.0,11.9
2023/12/15 06:40:00,31.4,12.2
2023/12/15 06:50:00,76.5,12.1
2023/12/15 07:00:00, 0.0,13.2
2023/12/15 07:10:00, 0.0,12.3
2023/12/15 07:20:00, 0.0,12.4
2023/12/15 07:30:00, 0.0,12.9
2023/12/15 07:40:00, 0.0,13.2
2023/12/15 07:50:00, 0.0,13.2
2023/12/15 08:00:00, 0.0,12.6
2023/12/15 08:10:00, 0.0,13.2
2023/12/15 08:20:00, 0.0,13.9
2023/12/15 08:30:00, 0.0,14.4
2023/12/15 08:40:00, 1.0,14.7
2023/12/15 08:50:00, 0.8,15.3
2023/12/15 09:00:00, 0.4,15.6
2023/12/15 09:10:00, 0.3,16.1
2023/12/15 09:20:00, 0.4,16.0
2023/12/15 09:30:00, 0.4,16.7
2023/12/15 09:40:00, 0.6,16.8
2023/12/15 09:50:00, 0.2,18.2
2023/12/15 10:00:00, 0.3,16.8
2023/12/15 10:10:00, 0.1,16.8
2023/12/15 10:20:00, 0.0,16.8
2023/12/15 10:30:00, 0.0,16.5
2023/12/15 10:40:00, 0.0,16.8
2023/12/15 10:50:00, 0.0,18.3
2023/12/15 11:00:00, 0.0,19.2
2023/12/15 11:10:00, 0.0,17.8
2023/12/15 11:20:00, 0.0,17.7
2023/12/15 11:30:00, 0.0,17.3
2023/12/15 11:40:00, 0.0,17.1
2023/12/15 11:50:00, 0.0,17.4
2023/12/15 12:00:00, 0.0,17.2
2023/12/15 12:10:00, 0.0,17.4
2023/12/15 12:20:00, 0.0,17.1
2023/12/15 12:30:00, 0.0,17.3
2023/12/15 12:40:00, 0.0,16.9
2023/12/15 12:50:00, 0.0,17.3
2023/12/15 13:00:00, 0.0,17.1
2023/12/15 13:10:00, 0.0,16.8
2023/12/15 13:20:00, 0.0,16.8
2023/12/15 13:30:00, 0.0,17.1
2023/12/15 13:40:00, 0.0,17.2
2023/12/15 13:50:00, 0.0,17.5
2023/12/15 14:00:00, 0.0,17.6
2023/12/15 14:10:00, 0.0,17.3
2023/12/15 14:20:00, 0.0,17.3
2023/12/15 14:30:00, 0.0,17.4
2023/12/15 14:40:00, 0.0,17.2
2023/12/15 14:50:00, 0.0,17.5
2023/12/15 15:00:00, 0.0,17.3
2023/12/15 15:10:00, 0.0,17.1
2023/12/15 15:20:00, 0.0,17.0
2023/12/15 15:30:00, 0.0,17.0
2023/12/15 15:40:00, 0.0,17.0
2023/12/15 15:50:00, 0.0,17.1
2023/12/15 16:00:00, 0.0,17.0
2023/12/15 16:10:00, 0.0,16.9
2023/12/15 16:20:00, 0.0,16.9
2023/12/15 16:30:00, 0.0,17.0
2023/12/15 16:40:00, 0.0,17.0
2023/12/15 16:50:00, 0.0,16.9
2023/12/15 17:00:00, 0.0,16.9
2023/12/15 17:10:00, 0.0,16.8
2023/12/15 17:20:00, 0.0,16.8
2023/12/15 17:30:00, 0.0,16.8
2023/12/15 17:40:00, 0.0,17.0
2023/12/15 17:50:00, 0.0,16.9
2023/12/15 18:00:00, 0.0,17.3
2023/12/15 18:10:00, 0.0,17.0
2023/12/15 18:20:00, 0.0,17.0
2023/12/15 18:30:00, 0.0,17.2
2023/12/15 18:40:00, 0.0,16.9
2023/12/15 18:50:00, 0.0,17.1
2023/12/15 19:00:00, 0.0,17.3
2023/12/15 19:10:00, 0.0,17.3
2023/12/15 19:20:00, 0.0,16.8
2023/12/15 19:30:00, 0.0,16.8
2023/12/15 19:40:00, 0.0,16.3
2023/12/15 19:50:00, 0.0,16.1
2023/12/15 20:00:00, 0.0,16.3
2023/12/15 20:10:00, 0.0,16.2
2023/12/15 20:20:00, 0.0,15.1
2023/12/15 20:30:00, 0.0,13.8
2023/12/15 20:40:00, 0.0,13.2
2023/12/15 20:50:00,38.4,12.9
2023/12/15 21:00:00,302.9,12.5
2023/12/15 21:10:00,303.1,12.2
2023/12/15 21:20:00,303.4,11.9
2023/12/15 21:30:00,303.5,11.5
2023/12/15 21:40:00,303.6,11.0
2023/12/15 21:50:00,302.9,11.0
2023/12/15 22:00:00,302.8,11.0
2023/12/15 22:10:00,302.6,10.9
2023/12/15 22:20:00,302.7,11.0
2023/12/15 22:30:00,302.9,11.0
2023/12/15 22:40:00,303.0,10.9
2023/12/15 22:50:00,167.1,11.1
2023/12/15 23:00:00,---,10.9
2023/12/15 23:10:00,302.9,10.8
2023/12/15 23:20:00,303.0,10.7
2023/12/15 23:30:00,76.8,10.8
2023/12/15 23:40:00, 0.0,10.5
2023/12/15 23:50:00, 0.0,10.8
